CW8386 Weather Reports


Display with metric or nautical units.
time (UTC)temp
F
wind
direction
speed
MPH
gust
MPH
rain 1hr
in
rain 24hr
in
rain mn
in
humidity
%
barometer
mb
20260505223536 45 360 10.0 19.0 0.00 0.10 0.10 47 1014.9
20260505223058 45 360 5.0 18.0 0.00 0.10 0.10 45 1014.8
20260505222600 45 360 12.0 18.0 0.00 0.10 0.10 43 1014.7
20260505222042 45 360 7.0 16.0 0.00 0.10 0.10 44 1014.5
20260505221524 45 360 10.0 25.0 0.00 0.10 0.10 46 1014.5
20260505221048 45 360 14.0 25.0 0.00 0.10 0.10 45 1014.5
20260505220530 45 360 7.0 19.0 0.00 0.10 0.10 45 1014.4
20260505220052 45 360 4.0 19.0 0.00 0.10 0.10 46 1014.6
20260505215554 45 360 9.0 19.0 0.00 0.10 0.10 42 1014.4
20260505215056 45 360 7.0 18.0 0.00 0.10 0.10 42 1014.4
20260505214541 45 360 8.0 21.0 0.00 0.10 0.10 42 1014.4
20260505214024 46 360 13.0 21.0 0.00 0.10 0.10 42 1014.2
20260505213546 46 360 15.0 25.0 0.00 0.10 0.10 41 1014.9
20260505213046 46 360 11.0 25.0 0.00 0.10 0.10 40 1014.8
20260505212527 46 360 8.0 20.0 0.00 0.10 0.10 40 1014.7
20260505212030 46 360 11.0 20.0 0.00 0.10 0.10 41 1014.8
20260505211533 46 360 7.0 20.0 0.00 0.10 0.10 41 1014.6
20260505211036 46 360 8.0 20.0 0.00 0.10 0.10 43 1014.5
20260505210539 46 360 13.0 17.0 0.00 0.10 0.10 43 1014.5
20260505210042 46 360 2.0 21.0 0.00 0.10 0.10 43 1014.5
20260505205524 46 360 14.0 21.0 0.00 0.10 0.10 42 1014.8
20260505205047 47 360 6.0 16.0 0.00 0.10 0.10 41 1014.6
20260505204528 47 360 8.0 16.0 0.00 0.10 0.10 40 1014.5
20260505204051 47 360 2.0 15.0 0.00 0.10 0.10 38 1014.4
20260505203552 48 360 8.0 15.0 0.00 0.10 0.10 38 1014.4
20260505203053 47 360 5.0 11.0 0.00 0.10 0.10 39 1014.4
20260505202615 47 360 4.0 14.0 0.00 0.10 0.10 38 1014.4
20260505202036 48 360 10.0 14.0 0.00 0.10 0.10 39 1014.4
20260505201041 47 360 4.0 15.0 0.00 0.10 0.10 40 1014.3
20260505200623 48 360 10.0 15.0 0.00 0.10 0.10 39 1014.5
20260505200043 48 360 10.0 12.0 0.00 0.10 0.10 40 1014.4
20260505195525 48 360 8.0 16.0 0.00 0.10 0.10 39 1014.4
20260505195107 47 360 11.0 16.0 0.00 0.10 0.10 40 1014.4
20260505194527 47 360 8.0 16.0 0.00 0.10 0.10 39 1014.4
20260505194031 48 360 12.0 17.0 0.00 0.10 0.10 39 1014.5
20260505193553 48 360 12.0 20.0 0.00 0.10 0.10 41 1014.6
20260505193039 48 360 9.0 20.0 0.00 0.10 0.10 41 1014.6
20260505192541 48 360 10.0 20.0 0.00 0.10 0.10 39 1014.6
20260505192103 48 360 13.0 20.0 0.00 0.10 0.10 39 1014.5
20260505191545 49 360 8.0 17.0 0.01 0.10 0.10 38 1014.4
20260505191046 49 360 11.0 17.0 0.01 0.10 0.10 38 1014.5
20260505190527 48 360 4.0 13.0 0.01 0.10 0.10 37 1014.4
20260505190030 49 360 6.0 14.0 0.01 0.10 0.10 37 1014.6
20260505185554 48 360 8.0 14.0 0.01 0.10 0.10 37 1014.6
20260505185035 48 360 3.0 9.0 0.01 0.10 0.10 36 1014.6
20260505184558 49 360 5.0 14.0 0.01 0.10 0.10 36 1014.6
20260505184058 49 360 4.0 17.0 0.01 0.10 0.10 36 1014.6
20260505183619 49 360 14.0 17.0 0.01 0.10 0.10 36 1014.6
20260505183101 48 360 11.0 15.0 0.01 0.10 0.10 36 1014.6
20260505182542 49 360 6.0 15.0 0.01 0.10 0.10 36 1014.6
20260505182044 48 360 5.0 13.0 0.01 0.10 0.10 36 1014.6
20260505181525 48 360 10.0 17.0 0.00 0.09 0.09 36 1014.6
20260505181028 47 360 6.0 17.0 0.00 0.09 0.09 37 1014.7
20260505180529 48 360 7.0 16.0 0.00 0.09 0.09 36 1014.8
20260505180032 48 360 5.0 17.0 0.00 0.09 0.09 36 1014.8
20260505175615 48 360 7.0 17.0 0.00 0.09 0.09 36 1014.8
20260505175056 48 360 7.0 13.0 0.00 0.09 0.09 37 1014.8
20260505174558 47 360 7.0 14.0 0.00 0.09 0.09 37 1014.8
20260505174039 48 360 6.0 14.0 0.00 0.09 0.09 35 1014.9
20260505173600 48 360 10.0 14.0 0.00 0.09 0.09 35 1014.9
20260505173103 49 360 1.0 16.0 0.00 0.09 0.09 36 1014.8
20260505172524 49 360 7.0 16.0 0.00 0.09 0.09 36 1014.9
20260505172031 49 360 6.0 17.0 0.00 0.09 0.09 36 1014.9
20260505171554 49 360 12.0 17.0 0.00 0.09 0.09 36 1014.9
20260505171036 49 360 6.0 15.0 0.00 0.09 0.09 36 1014.8
20260505170557 49 360 9.0 15.0 0.00 0.09 0.09 38 1014.9
20260505170055 47 360 4.0 15.0 0.00 0.09 0.09 38 1014.9
20260505165537 47 360 8.0 15.0 0.00 0.09 0.09 38 1014.9
20260505165100 47 360 5.0 13.0 0.00 0.09 0.09 40 1014.9
20260505164602 47 360 6.0 10.0 0.00 0.09 0.09 39 1015.0
20260505163524 46 360 10.0 13.0 0.01 0.09 0.09 39 1015.1
20260505163107 46 360 5.0 11.0 0.01 0.09 0.09 41 1015.0
20260505162526 47 360 8.0 12.0 0.01 0.09 0.09 40 1015.1
20260505162028 47 360 6.0 12.0 0.01 0.09 0.09 40 1015.1
20260505161032 47 360 8.0 12.0 0.01 0.09 0.09 41 1015.2
20260505160534 46 360 8.0 12.0 0.01 0.09 0.09 39 1015.2
20260505160117 45 360 7.0 13.0 0.01 0.09 0.09 40 1015.2
20260505153036 45 360 8.0 14.0 0.00 0.08 0.08 42 1015.4
20260505152600 46 360 7.0 14.0 0.00 0.08 0.08 44 1015.3
20260505152041 46 360 9.0 14.0 0.00 0.08 0.08 45 1015.3
20260505151120 46 360 9.0 14.0 0.00 0.08 0.08 45 1015.2
20260505150524 45 360 5.0 12.0 0.00 0.08 0.08 49 1015.2
20260505140609 42 360 0.0 2.0 0.01 0.08 0.08 72 1016.2
20260505124534 41 360 5.0 11.0 0.01 0.07 0.07 77 1015.8
20260505124036 41 360 5.0 11.0 0.01 0.07 0.07 78 1014.9
20260505123557 40 360 4.0 9.0 0.01 0.07 0.07 79 1014.9
20260505123100 40 360 5.0 7.0 0.01 0.07 0.07 80 1015.0
20260505122541 40 360 2.0 4.0 0.01 0.07 0.07 81 1015.0
20260505122102 40 360 0.0 0.0 0.01 0.07 0.07 82 1015.0
20260505121544 40 360 0.0 0.0 0.01 0.07 0.07 82 1015.0
20260505121029 40 360 0.0 0.0 0.01 0.07 0.07 82 1015.0
20260505120606 40 360 0.0 0.0 0.00 0.06 0.06 82 1015.0
20260505120031 40 360 0.0 0.0 0.00 0.06 0.06 82 1014.9
20260505115610 40 360 0.0 0.0 0.00 0.06 0.06 82 1014.9
20260505115033 40 360 0.0 0.0 0.00 0.06 0.06 82 1014.9
20260505114557 40 360 0.0 0.0 0.00 0.06 0.06 82 1014.9
20260505114037 40 360 0.0 0.0 0.00 0.06 0.06 82 1015.0
20260505113619 40 360 0.0 0.0 0.01 0.06 0.06 82 1014.9
20260505113040 40 360 0.0 0.0 0.01 0.06 0.06 82 1014.9
20260505112623 40 360 0.0 0.0 0.01 0.06 0.06 82 1014.9
20260505112022 40 360 0.0 0.0 0.01 0.06 0.06 82 1014.9
20260505111525 40 360 0.0 0.0 0.01 0.06 0.06 81 1014.9
20260505111108 40 360 0.0 0.0 0.01 0.06 0.06 81 1014.8
20260505110548 40 360 0.0 0.0 0.01 0.06 0.06 81 1015.8
20260505102106 40 360 0.0 3.0 0.01 0.05 0.05 82 1015.8
20260505101606 40 360 0.0 2.0 0.01 0.05 0.05 82 1015.9
20260505101046 40 360 0.0 4.0 0.01 0.05 0.05 81 1015.9
20260505100549 40 360 1.0 4.0 0.01 0.05 0.05 81 1015.9
20260505100031 40 360 0.0 3.0 0.01 0.05 0.05 81 1016.0
20260505095533 40 360 0.0 4.0 0.01 0.05 0.05 81 1016.0
20260505095116 40 360 0.0 4.0 0.01 0.05 0.05 81 1016.0
20260505094537 40 360 0.0 1.0 0.02 0.05 0.05 81 1016.1
20260505094039 40 360 0.0 1.0 0.02 0.05 0.05 81 1016.1
20260505093601 40 360 0.0 0.0 0.01 0.04 0.04 81 1016.1
20260505093022 40 360 0.0 0.0 0.01 0.04 0.04 81 1016.1
20260505092524 40 360 0.0 0.0 0.01 0.04 0.04 81 1016.2
20260505092026 40 360 0.0 0.0 0.01 0.04 0.04 81 1016.2
20260505091529 40 360 0.0 0.0 0.01 0.04 0.04 81 1016.3
20260505090550 40 360 0.0 0.0 0.02 0.04 0.04 80 1016.2
20260505090112 40 360 0.0 3.0 0.02 0.04 0.04 80 1016.2
20260505085612 40 360 0.0 3.0 0.02 0.04 0.04 80 1016.2
20260505085053 40 360 0.0 5.0 0.02 0.04 0.04 81 1016.3
20260505084535 40 360 0.0 6.0 0.01 0.03 0.03 80 1016.2
20260505084037 40 360 1.0 13.0 0.01 0.03 0.03 80 1016.2
20260505083620 40 360 4.0 13.0 0.01 0.03 0.03 80 1016.2
20260505083100 40 360 5.0 12.0 0.01 0.03 0.03 81 1016.3
20260505082041 40 360 7.0 12.0 0.02 0.03 0.03 81 1016.3
20260505081524 40 360 5.0 10.0 0.02 0.03 0.03 80 1016.3
20260505081026 40 360 5.0 10.0 0.02 0.03 0.03 80 1016.4
20260505080529 40 360 6.0 9.0 0.01 0.02 0.02 80 1016.4
20260505080035 40 360 4.0 6.0 0.02 0.02 0.02 79 1016.5
20260505075557 40 360 3.0 7.0 0.02 0.02 0.02 79 1016.5
20260505075039 40 360 4.0 8.0 0.02 0.02 0.02 79 1016.5
20260505074522 40 360 5.0 10.0 0.02 0.02 0.02 78 1016.5
20260505074106 40 360 4.0 10.0 0.02 0.02 0.02 78 1016.5
20260505073526 40 360 4.0 6.0 0.02 0.02 0.02 77 1016.5
20260505073049 40 360 1.0 10.0 0.02 0.02 0.02 76 1016.5
20260505072531 41 360 6.0 10.0 0.01 0.01 0.01 76 1016.5
20260505072034 41 360 4.0 18.0 0.01 0.01 0.01 74 1016.5
20260505071556 41 360 7.0 18.0 0.01 0.01 0.01 73 1016.5
20260505071040 42 360 6.0 11.0 0.01 0.01 0.01 72 1016.4
20260505070540 42 360 4.0 9.0 0.01 0.01 0.01 72 1016.4
20260505070042 43 360 4.0 10.0 0.00 0.00 0.00 70 1016.4
20260505065524 43 360 3.0 20.0 0.00 0.00 0.00 69 1016.4
20260505065028 43 360 13.0 20.0 0.00 0.00 0.00 67 1016.3
20260505064551 44 360 0.0 11.0 0.00 0.00 0.00 65 1016.2
20260505064113 44 360 3.0 12.0 0.00 0.00 0.00 64 1016.2
20260505063613 44 360 4.0 14.0 0.00 0.00 0.00 63 1016.2
20260505063033 45 360 10.0 14.0 0.00 0.00 0.00 61 1016.0
20260505062555 46 360 7.0 12.0 0.00 0.00 0.00 60 1016.0
20260505062037 46 360 9.0 12.0 0.00 0.00 0.00 58 1015.9
20260505061523 46 360 5.0 10.0 0.00 0.00 0.00 57 1015.7
20260505061025 46 360 0.0 3.0 0.00 0.00 0.00 56 1015.7
20260505060528 46 360 0.0 0.0 0.00 0.00 0.00 59 1015.7
20260505060030 46 360 0.0 0.0 0.00 0.00 0.00 58 1015.6
20260505055553 46 360 0.0 0.0 0.00 0.00 0.00 58 1015.5
20260505055115 46 360 0.0 0.0 0.00 0.00 0.00 56 1015.5
20260505054556 46 360 0.0 6.0 0.00 0.00 0.00 57 1015.6
20260505054037 46 360 1.0 7.0 0.00 0.00 0.00 59 1015.6
20260505053538 47 360 2.0 11.0 0.00 0.00 0.00 56 1015.5
20260505053039 47 360 6.0 12.0 0.00 0.00 0.00 53 1015.5
20260505052601 48 360 7.0 14.0 0.00 0.00 0.00 51 1015.6
20260505052043 48 360 11.0 15.0 0.00 0.00 0.00 49 1015.4
20260505051525 48 360 9.0 17.0 0.00 0.00 0.00 50 1015.4
20260505051108 48 360 9.0 17.0 0.00 0.00 0.00 49 1015.4
20260505050527 48 360 5.0 15.0 0.00 0.00 0.00 49 1015.3
20260505041532 50 360 10.0 12.0 0.00 0.00 0.00 43 1014.9
20260505041115 50 360 8.0 13.0 0.00 0.00 0.00 43 1014.8
20260505040036 51 360 4.0 11.0 0.00 0.00 0.00 43 1014.7
20260505035538 51 360 2.0 10.0 0.00 0.00 0.00 43 1014.6
20260505035100 51 360 5.0 11.0 0.00 0.00 0.00 42 1014.6
20260505034522 51 360 7.0 12.0 0.00 0.00 0.00 42 1014.5
20260505034026 51 360 5.0 14.0 0.00 0.00 0.00 42 1014.3
20260505033527 51 360 11.0 14.0 0.00 0.00 0.00 41 1014.3
20260505033110 51 360 9.0 14.0 0.00 0.00 0.00 41 1014.3
20260505032531 51 360 6.0 14.0 0.00 0.00 0.00 42 1014.2
20260505032114 51 360 8.0 12.0 0.00 0.00 0.00 43 1014.1
20260505031614 51 360 6.0 14.0 0.00 0.00 0.00 42 1014.0
20260505031037 51 360 11.0 20.0 0.00 0.00 0.00 41 1013.9
20260505030618 51 360 10.0 20.0 0.00 0.00 0.00 41 1013.7
20260505030038 51 360 11.0 18.0 0.00 0.00 0.00 41 1013.6
20260505025601 52 360 10.0 17.0 0.00 0.00 0.00 41 1013.5
20260505025022 52 360 13.0 20.0 0.00 0.00 0.00 41 1013.4
20260505024525 52 360 8.0 20.0 0.00 0.00 0.00 41 1013.3
20260505024027 52 360 12.0 20.0 0.00 0.00 0.00 40 1013.2
20260505023548 52 360 14.0 18.0 0.00 0.00 0.00 40 1013.1
20260505023030 52 360 10.0 17.0 0.00 0.00 0.00 40 1013.0
20260505022533 52 360 11.0 19.0 0.00 0.00 0.00 41 1012.9
20260505022056 53 360 11.0 19.0 0.00 0.00 0.00 40 1012.8
20260505021537 53 360 10.0 19.0 0.00 0.00 0.00 41 1012.7
20260505021026 53 360 13.0 20.0 0.00 0.00 0.00 41 1012.5
20260505020547 53 360 13.0 20.0 0.00 0.00 0.00 41 1012.4
20260505020027 53 360 10.0 18.0 0.00 0.00 0.00 40 1012.3
20260505015530 54 360 11.0 17.0 0.00 0.00 0.00 40 1012.2
20260505014036 55 360 13.0 19.0 0.00 0.00 0.00 39 1011.8
20260505013537 55 360 10.0 18.0 0.00 0.00 0.00 39 1011.7
20260505013100 55 360 10.0 17.0 0.00 0.00 0.00 39 1012.4
20260505012540 55 360 13.0 19.0 0.00 0.00 0.00 38 1012.3
20260505012022 56 360 11.0 19.0 0.00 0.00 0.00 38 1012.1
20260505011604 56 360 6.0 18.0 0.00 0.00 0.00 39 1012.0
20260505011123 56 360 11.0 16.0 0.00 0.00 0.00 38 1011.9
20260505010542 57 360 9.0 19.0 0.00 0.00 0.00 38 1011.9
20260505010044 57 360 7.0 19.0 0.00 0.00 0.00 38 1011.8
20260505005526 58 360 12.0 20.0 0.00 0.00 0.00 38 1011.7
20260505005028 58 360 12.0 20.0 0.00 0.00 0.00 38 1011.7
20260505004531 58 360 11.0 16.0 0.00 0.00 0.00 38 1011.5
20260505004054 58 360 7.0 17.0 0.00 0.00 0.00 38 1011.4
20260505003555 58 360 12.0 17.0 0.00 0.00 0.00 38 1011.3
20260505003036 58 360 9.0 15.0 0.00 0.00 0.00 38 1011.2
20260505002618 58 360 8.0 15.0 0.00 0.00 0.00 38 1011.2
20260505002059 59 360 8.0 14.0 0.00 0.00 0.00 38 1011.2
20260505001103 58 360 11.0 16.0 0.00 0.00 0.00 38 1011.0
20260505000544 59 360 11.0 16.0 0.00 0.00 0.00 38 1010.9
20260505000046 59 360 9.0 21.0 0.00 0.00 0.00 37 1010.9
20260504235547 61 360 12.0 21.0 0.00 0.00 0.00 37 1010.8
20260504235029 61 360 6.0 15.0 0.00 0.00 0.00 36 1010.7
20260504234613 61 360 5.0 14.0 0.00 0.00 0.00 36 1010.7
20260504234053 61 360 5.0 12.0 0.00 0.00 0.00 36 1010.6
20260504233535 61 360 4.0 11.0 0.00 0.00 0.00 37 1010.7
20260504233037 59 360 2.0 8.0 0.00 0.00 0.00 38 1010.8
20260504232540 59 360 2.0 8.0 0.00 0.00 0.00 38 1010.7
20260504232022 58 360 3.0 10.0 0.00 0.00 0.00 38 1010.7
20260504231529 58 360 5.0 11.0 0.00 0.00 0.00 38 1010.8
20260504231032 58 360 9.0 17.0 0.00 0.00 0.00 38 1010.7
20260504230613 58 360 9.0 17.0 0.00 0.00 0.00 38 1010.8
20260504230054 58 360 6.0 14.0 0.00 0.00 0.00 38 1010.9
20260504225556 58 360 12.0 14.0 0.00 0.00 0.00 38 1010.7
20260504225057 58 360 8.0 15.0 0.00 0.00 0.00 38 1010.6
20260504224539 58 360 8.0 17.0 0.00 0.00 0.00 38 1010.6
20260504224102 59 360 10.0 17.0 0.00 0.00 0.00 38 1010.5